Location: Montbazon
(47.2835°N, 0.6999°E)
Time: 17:49:04
(UTC+00:00)

Cosmos 2278 Rocket - Pass Details

Date: 08 November 2025
Orbit: 841 x 843 km, 71.0° (Epoch: 09 December)

Event Time Altitude Azimuth Distance (km) Brightness Sun altitude
Exits shadow 05:11:40 11° 329° (NNW) 2,432 4.2 -17.1°
Maximum altitude 05:17:12 73° 246° (WSW) 884 2.1 -16.1°
Drops below altitude 10° 05:22:49 10° 163° (SSE) 2,453 4.9 -15.2°
Sets 05:25:15 0° 162° (SSE) 3,384 5.7 -14.8°
